Regional Weather Roundup
Issued by NWS

Home | Current Version | Previous Version | Graphics & Text | Print | Product List | Glossary On
Versions: 1 2 3 4 5 6 7 8 9 10 11 12 13 14 15 16 17 18 19 20 21 22 23 24 25 26 27 28 29 30 31 32 33 34 35 36 37 38 39 40 41 42 43 44 45 46 47 48 49 50
000
ASUS43 KDMX 110506
RWRIA

WEATHER ROUNDUP FOR IOWA
NATIONAL WEATHER SERVICE DES MOINES IA
1100 PM CST SAT DEC 10 2016

NOTE: "FAIR" INDICATES FEW OR NO CLOUDS BELOW 12,000 FEET WITH NO
SIGNIFICANT WEATHER AND/OR OBSTRUCTIONS TO VISIBILITY.

* - THESE STATIONS ARE NOT NWS STATIONS...THUS NOT UNDER NWS
QUALITY CONTROL.  THEY ALSO DO NOT REPORT WEATHER SUCH
AS PRECIPITATION OR FOG.

IAZ001>003-012>014-020>022-031>034-043>046-110600-
   NORTHWEST IOWA

CITY           SKY/WX    TMP DP  RH WIND       PRES   REMARKS
CARROLL *      CLOUDY    25  21  86 SE13      29.97F WCI  13
CHEROKEE *     LGT SNOW  23  21  95 E7        29.96F WCI  14
DENISON *      CLOUDY    25  21  86 E9        29.92F WCI  15
LE MARS *      CLOUDY    25  21  86 E12       29.94F WCI  14
ORANGE CITY *  FLURRIES  21  19  93 E9        29.92F WCI  11
SHELDON *      LGT SNOW  21  21 100 E15       29.94F WCI   8
SIOUX CITY     CLOUDY    28  21  75 E17       29.90F WCI  16
SPENCER        LGT SNOW  21  18  88 SE6       29.99F FOG     WCI  13
STORM LAKE *   LGT SNOW  21  19  93 SE14      29.96F VSB 3/4 WCI   8
$$

IAZ055>058-069>071-079>083-090>094-110600-
   SOUTHWEST IOWA

CITY           SKY/WX    TMP DP  RH WIND       PRES   REMARKS
ATLANTIC *     CLOUDY    30  19  64 SE12      29.94F WCI  21
AUDUBON *      CLOUDY    27  21  80 SE8       29.95F WCI  18
CLARINDA *     CLOUDY    32  19  59 S8G15     29.97F WCI  25
COUNCIL BLFS * CLOUDY    30  21  69 SE13      29.90F WCI  20
CRESTON *      CLOUDY    28  19  69 SE10      29.99S WCI  19
HARLAN  *      CLOUDY    28  21  74 SE10G17   29.96F WCI  19
LAMONI         CLOUDY    31  18  58 SE13      29.99F WCI  21
RED OAK *      CLOUDY    32  19  59 S9        29.95F WCI  24
SHENANDOAH *   CLOUDY    32  21  64 SE14      29.94F WCI  22
$$

IAZ047>049-059>061-072>074-084-110600-
   CENTRAL IOWA

CITY           SKY/WX    TMP DP  RH WIND       PRES   REMARKS
AMES           CLOUDY    24  21  88 E10       30.04F WCI  14
ANKENY *       CLOUDY    25  21  86 E10       30.04F WCI  15
BOONE *        CLOUDY    23  19  86 E14       30.01F WCI  11
CHARITON *     CLOUDY    28  21  74 SE14      30.01F WCI  17
DES MOINES     CLOUDY    27  19  72 E8        30.02F WCI  19
GRINNELL*      CLOUDY    24  20  86 E12       30.07F WCI  13
KNOXVILLE *    CLOUDY    28  19  69 SE10      30.02F WCI  19
MARSHALLTOWN   LGT SNOW  22  20  92 E13       30.06F FOG     WCI  10
NEWTON *       CLOUDY    25  19  80 E14       30.05F WCI  13
PELLA *        CLOUDY    28  20  74 SE8       30.06F WCI  19
PERRY *        CLOUDY    25  22  91 E12       30.00F WCI  14
$$

IAZ004>006-015-016-023>025-035-036-110600-
   NORTH CENTRAL IOWA

CITY           SKY/WX    TMP DP  RH WIND       PRES   REMARKS
ALGONA *       LGT SNOW  21  19  93 SE12G21   30.02F WCI   9
CLARION *      FOG       21  21 100 E16       30.04F VSB 3/4 WCI   7
ESTHERVILLE    LGT SNOW  19  18  95 E15       30.01F FOG     WCI   5
FORT DODGE *   CLOUDY    21  18  86 SE10      30.03F WCI  10
MASON CITY     LGT SNOW  20  17  88 E13       30.08F FOG     WCI   7
FOREST CITY *  LGT SNOW  21  19  93 E12       30.06F WCI   9
WEBSTER CITY * CLOUDY    23  23 100 SE17      30.01F FOG     WCI   9
IOWA FALLS *   LGT SNOW  23  21  92 E12       30.07F WCI  11
$$

IAZ007>011-017>019-026>030-037>042-050>054-066-110600-
   NORTHEAST IOWA

CITY           SKY/WX    TMP DP  RH WIND       PRES   REMARKS
CEDAR RAPIDS   LGT SNOW  22  21  96 SE12      30.12F FOG     WCI  10
CHARLES CITY * LGT SNOW  21  19  93 E14       30.12S WCI   8
CLINTON *      CLOUDY    23  20  88 SE16      30.18F WCI  10
DECORAH *      LGT SNOW  19  18  93 SE8       30.14F WCI   9
DUBUQUE        LGT SNOW  21  18  88 SE12      30.18R FOG     WCI   9
MONTICELLO *   MIX PCPN  23  19  86 SE13      30.15F WCI  11
OELWEIN *      LGT SNOW  21  19  93 SE13      30.13F WCI   9
WATERLOO       LGT SNOW  22  19  89 SE12      30.12F VSB 3/4 WCI  10
$$

IAZ064-065-067-068-078-110600-
   EAST CENTRAL IOWA

CITY           SKY/WX    TMP DP  RH WIND       PRES   REMARKS
DAVENPORT      CLOUDY    24  19  81 SE14      30.17F WCI  12
IOWA CITY      CLOUDY    25  20  81 E9        30.16S WCI  15
MUSCATINE *    CLOUDY    27  21  80 SE6       30.17S WCI  20
QUAD CITIES    CLOUDY    26  19  74 SE12      30.18F WCI  16
$$

IAZ062-063-075>077-085>089-095>099-110600-
   SOUTHEAST IOWA

CITY           SKY/WX    TMP DP  RH WIND       PRES   REMARKS
BURLINGTON     CLOUDY    30  21  69 SE9       30.13F WCI  22
FAIRFIELD *    CLOUDY    28  19  69 SE7       30.09F WCI  21
FORT MADISON * CLOUDY    30  21  69 SE9       30.12F WCI  22
KEOKUK *       CLOUDY    32  19  59 S12G18    30.11F WCI  23
OSKALOOSA *    CLOUDY    27  21  79 SE9       30.08S WCI  18
CENTERVILLE *  CLOUDY    30  18  59 SE16      30.05F WCI  19
OTTUMWA        CLOUDY    29  18  63 SE10      30.07F WCI  20
WASHINGTON *   CLOUDY    27  21  80 SE9       30.13F WCI  17
$$

ABBREVIATIONS USED IN REMARKS
   TC - TEMPERATURES IN CELSIUS
  WCI - WIND CHILL INDEX
   HX - HEAT INDEX
  VSB - VISIBILITY
$$




USA.gov is the U.S. government's official web portal to all federal, state and local government web resources and services.